LHA4MK KPDX-KPAE

Flight info

Callsign LHA4MK
Flight time 0h 36m
Altitude 24000
Route BTG OLM2
Aircraft A320/M-SDE1E2FGIJ1RWYZE3/LB1

Departure

Time 2026-04-20 12:08
Airport Portland International Airport (KPDX)

Arrival

Time 2026-04-20 12:44
Airport Seattle Paine Field International Airport (KPAE)
Time Latitude Longitude Altitude Speed Heading
2026-04-20 11:55 45.59000 -122.59796 29 ft 0 kts 208°
2026-04-20 11:59 45.59001 -122.59796 29 ft 2 kts 208°
2026-04-20 12:00 45.59023 -122.59778 29 ft 4 kts 209°
2026-04-20 12:00 45.59043 -122.59763 29 ft 4 kts 214°
2026-04-20 12:00 45.59057 -122.59738 29 ft 4 kts 269°
2026-04-20 12:00 45.59051 -122.59705 29 ft 3 kts 299°
2026-04-20 12:01 45.59039 -122.59674 29 ft 2 kts 298°
2026-04-20 12:01 45.59039 -122.59672 29 ft 0 kts 298°
2026-04-20 12:03 45.59040 -122.59675 29 ft 2 kts 298°
2026-04-20 12:03 45.59052 -122.59709 29 ft 6 kts 297°
2026-04-20 12:03 45.59081 -122.59783 29 ft 11 kts 300°
2026-04-20 12:04 45.59129 -122.59897 29 ft 16 kts 297°
2026-04-20 12:04 45.59139 -122.60037 28 ft 13 kts 252°
2026-04-20 12:04 45.59065 -122.60122 28 ft 16 kts 211°
2026-04-20 12:04 45.58964 -122.60202 28 ft 18 kts 208°
2026-04-20 12:05 45.58872 -122.60170 29 ft 16 kts 118°
2026-04-20 12:05 45.58810 -122.60009 29 ft 21 kts 119°
2026-04-20 12:05 45.58734 -122.59813 29 ft 25 kts 119°
2026-04-20 12:05 45.58647 -122.59590 29 ft 27 kts 119°
2026-04-20 12:06 45.58557 -122.59359 28 ft 26 kts 118°
2026-04-20 12:06 45.58474 -122.59149 28 ft 26 kts 120°
2026-04-20 12:06 45.58380 -122.58914 29 ft 28 kts 119°
2026-04-20 12:06 45.58316 -122.58746 29 ft 14 kts 118°
2026-04-20 12:07 45.58263 -122.58607 29 ft 18 kts 119°
2026-04-20 12:07 45.58197 -122.58438 29 ft 20 kts 119°
2026-04-20 12:07 45.58126 -122.58360 28 ft 12 kts 193°
2026-04-20 12:07 45.58075 -122.58424 29 ft 9 kts 270°
2026-04-20 12:08 45.58104 -122.58520 30 ft 13 kts 298°
2026-04-20 12:08 45.58267 -122.58936 30 ft 90 kts 298°
2026-04-20 12:08 45.58683 -122.60013 45 ft 153 kts 298°
2026-04-20 12:08 45.59198 -122.61362 747 ft 155 kts 298°
2026-04-20 12:09 45.59705 -122.62736 1527 ft 161 kts 298°
2026-04-20 12:09 45.60249 -122.64245 2037 ft 181 kts 297°
2026-04-20 12:09 45.60863 -122.65946 2472 ft 204 kts 300°
2026-04-20 12:09 45.61910 -122.67450 2875 ft 229 kts 335°
2026-04-20 12:10 45.63498 -122.67757 3639 ft 237 kts 16°
2026-04-20 12:10 45.64989 -122.66769 4547 ft 241 kts 34°
2026-04-20 12:10 45.66467 -122.65579 4887 ft 245 kts 33°
2026-04-20 12:10 45.67974 -122.64408 5001 ft 247 kts 32°
2026-04-20 12:11 45.69486 -122.63246 5024 ft 247 kts 32°
2026-04-20 12:11 45.70995 -122.62086 5019 ft 246 kts 32°
2026-04-20 12:11 45.72505 -122.60920 5044 ft 249 kts 32°
2026-04-20 12:11 45.74198 -122.59958 5695 ft 270 kts 17°
2026-04-20 12:12 45.76065 -122.59616 6902 ft 274 kts
2026-04-20 12:12 45.77979 -122.59919 7976 ft 280 kts 352°
2026-04-20 12:12 45.79880 -122.60389 9070 ft 283 kts 351°
2026-04-20 12:12 45.81833 -122.60879 10120 ft 287 kts 351°
2026-04-20 12:13 45.83816 -122.61380 11061 ft 293 kts 351°
2026-04-20 12:13 45.85840 -122.61892 11976 ft 299 kts 351°
2026-04-20 12:13 45.87969 -122.62429 12513 ft 322 kts 351°
2026-04-20 12:13 45.90262 -122.63004 12905 ft 347 kts 350°
2026-04-20 12:14 45.92721 -122.63618 13271 ft 370 kts 350°
2026-04-20 12:14 45.95311 -122.64266 13864 ft 383 kts 350°
2026-04-20 12:14 45.97953 -122.64929 14594 ft 389 kts 350°
2026-04-20 12:14 46.00635 -122.65600 15375 ft 393 kts 350°
2026-04-20 12:15 46.03335 -122.66276 16166 ft 396 kts 350°
2026-04-20 12:15 46.06069 -122.66961 16941 ft 400 kts 350°
2026-04-20 12:15 46.08825 -122.67651 17718 ft 404 kts 350°
2026-04-20 12:15 46.11605 -122.68348 18500 ft 407 kts 350°
2026-04-20 12:16 46.14408 -122.69050 19198 ft 411 kts 350°
2026-04-20 12:16 46.17235 -122.69760 19902 ft 415 kts 350°
2026-04-20 12:16 46.20095 -122.70479 20579 ft 419 kts 350°
2026-04-20 12:16 46.22980 -122.71204 21221 ft 423 kts 350°
2026-04-20 12:17 46.25897 -122.71940 21843 ft 427 kts 350°
2026-04-20 12:17 46.28841 -122.72687 22463 ft 431 kts 350°
2026-04-20 12:17 46.31809 -122.73444 23077 ft 436 kts 350°
2026-04-20 12:17 46.34809 -122.74207 23628 ft 440 kts 350°
2026-04-20 12:18 46.37829 -122.74971 23834 ft 441 kts 350°
2026-04-20 12:18 46.40879 -122.75746 23897 ft 452 kts 350°
2026-04-20 12:18 46.43992 -122.76537 23901 ft 457 kts 350°
2026-04-20 12:18 46.47136 -122.77334 23901 ft 458 kts 350°
2026-04-20 12:19 46.50278 -122.78129 23897 ft 459 kts 350°
2026-04-20 12:19 46.53422 -122.78928 23884 ft 459 kts 350°
2026-04-20 12:19 46.56556 -122.79731 23900 ft 458 kts 350°
2026-04-20 12:19 46.59696 -122.80539 23901 ft 457 kts 350°
2026-04-20 12:20 46.62831 -122.81347 23899 ft 457 kts 350°
2026-04-20 12:20 46.65958 -122.82149 23897 ft 457 kts 350°
2026-04-20 12:20 46.69091 -122.82947 23897 ft 457 kts 350°
2026-04-20 12:20 46.72224 -122.83747 23899 ft 457 kts 350°
2026-04-20 12:21 46.75311 -122.84538 23896 ft 445 kts 350°
2026-04-20 12:21 46.78339 -122.85315 23900 ft 440 kts 350°
2026-04-20 12:21 46.81351 -122.86091 23897 ft 439 kts 350°
2026-04-20 12:21 46.84315 -122.86857 23905 ft 438 kts 350°
2026-04-20 12:22 46.87318 -122.87633 23911 ft 438 kts 350°
2026-04-20 12:22 46.90319 -122.88408 23905 ft 438 kts 351°
2026-04-20 12:22 46.93336 -122.88900 23255 ft 438 kts
2026-04-20 12:22 46.96372 -122.88362 22064 ft 441 kts 17°
2026-04-20 12:23 46.99221 -122.86758 21152 ft 437 kts 30°
2026-04-20 12:23 47.01729 -122.84327 20372 ft 430 kts 42°
2026-04-20 12:23 47.03224 -122.82442 19876 ft 427 kts 43°
2026-04-20 12:23 47.05457 -122.79604 19148 ft 423 kts 43°
2026-04-20 12:24 47.07659 -122.76811 18243 ft 415 kts 43°
2026-04-20 12:24 47.09830 -122.74058 17180 ft 410 kts 43°
2026-04-20 12:24 47.11971 -122.71334 16166 ft 404 kts 43°
2026-04-20 12:24 47.14078 -122.68638 15152 ft 399 kts 43°
2026-04-20 12:25 47.16130 -122.66005 14734 ft 380 kts 43°
2026-04-20 12:25 47.18050 -122.63543 14608 ft 354 kts 43°
2026-04-20 12:25 47.19855 -122.61226 14370 ft 337 kts 43°
2026-04-20 12:25 47.21599 -122.58983 13917 ft 331 kts 44°
2026-04-20 12:26 47.23320 -122.56766 13351 ft 327 kts 44°
2026-04-20 12:26 47.25023 -122.54568 12759 ft 324 kts 44°
2026-04-20 12:26 47.26704 -122.52396 12299 ft 318 kts 43°
2026-04-20 12:26 47.28358 -122.50262 12171 ft 316 kts 43°
2026-04-20 12:27 47.30020 -122.48153 11964 ft 316 kts 39°
2026-04-20 12:27 47.31989 -122.46745 11762 ft 317 kts 13°
2026-04-20 12:27 47.34174 -122.46659 11555 ft 315 kts 347°
2026-04-20 12:27 47.36215 -122.47773 11351 ft 313 kts 334°
2026-04-20 12:28 47.38304 -122.48681 11169 ft 314 kts 352°
2026-04-20 12:28 47.40482 -122.48965 10970 ft 314 kts 355°
2026-04-20 12:28 47.42658 -122.49146 10767 ft 313 kts 357°
2026-04-20 12:28 47.44828 -122.49272 10556 ft 311 kts 357°
2026-04-20 12:29 47.46980 -122.49372 10360 ft 308 kts 358°
2026-04-20 12:29 47.49124 -122.49465 10155 ft 307 kts 358°
2026-04-20 12:29 47.51253 -122.49561 10019 ft 306 kts 358°
2026-04-20 12:29 47.53378 -122.49665 9985 ft 306 kts 358°
2026-04-20 12:30 47.55508 -122.49776 9988 ft 306 kts 357°
2026-04-20 12:30 47.57641 -122.49889 9988 ft 307 kts 357°
2026-04-20 12:30 47.59771 -122.50004 9989 ft 307 kts 357°
2026-04-20 12:30 47.61905 -122.50119 9989 ft 307 kts 357°
2026-04-20 12:31 47.64037 -122.50233 9991 ft 306 kts 357°
2026-04-20 12:31 47.66164 -122.50345 9989 ft 306 kts 358°
2026-04-20 12:31 47.68297 -122.50454 9990 ft 306 kts 358°
2026-04-20 12:31 47.70428 -122.50565 9991 ft 306 kts 358°
2026-04-20 12:32 47.72549 -122.50677 9725 ft 304 kts 357°
2026-04-20 12:32 47.74654 -122.50789 9390 ft 301 kts 358°
2026-04-20 12:32 47.76732 -122.50902 9058 ft 298 kts 358°
2026-04-20 12:32 47.78764 -122.51012 8720 ft 295 kts 358°
2026-04-20 12:33 47.80835 -122.51124 8374 ft 293 kts 358°
2026-04-20 12:33 47.82866 -122.51235 8052 ft 291 kts 358°
2026-04-20 12:33 47.84853 -122.51343 7733 ft 288 kts 358°
2026-04-20 12:33 47.86848 -122.51451 7481 ft 286 kts 358°
2026-04-20 12:34 47.88830 -122.51557 7213 ft 284 kts 359°
2026-04-20 12:34 47.90800 -122.51662 6946 ft 282 kts 359°
2026-04-20 12:34 47.92758 -122.51769 6685 ft 281 kts 359°
2026-04-20 12:34 47.94697 -122.51653 6419 ft 277 kts 12°
2026-04-20 12:35 47.96571 -122.51012 6149 ft 276 kts 14°
2026-04-20 12:35 47.98432 -122.50362 5885 ft 273 kts 14°
2026-04-20 12:35 48.00274 -122.49717 5631 ft 271 kts 14°
2026-04-20 12:35 48.02101 -122.49077 5392 ft 269 kts 14°
2026-04-20 12:36 48.03916 -122.48443 5254 ft 268 kts 14°
2026-04-20 12:36 48.05724 -122.47810 5143 ft 263 kts 14°
2026-04-20 12:36 48.07476 -122.47194 5018 ft 254 kts 14°
2026-04-20 12:36 48.09163 -122.46603 4893 ft 245 kts 14°
2026-04-20 12:37 48.10792 -122.46034 4771 ft 236 kts 14°
2026-04-20 12:37 48.12372 -122.45484 4638 ft 232 kts 14°
2026-04-20 12:37 48.13939 -122.44935 4521 ft 231 kts 14°
2026-04-20 12:37 48.15405 -122.44022 4391 ft 229 kts 36°
2026-04-20 12:38 48.16447 -122.42248 4273 ft 229 kts 62°
2026-04-20 12:38 48.16856 -122.39957 4150 ft 230 kts 88°
2026-04-20 12:38 48.16597 -122.37593 4035 ft 229 kts 103°
2026-04-20 12:38 48.16213 -122.35344 3995 ft 216 kts 103°
2026-04-20 12:39 48.15439 -122.31074 3991 ft 213 kts 114°
2026-04-20 12:39 48.14444 -122.29467 3993 ft 216 kts 151°
2026-04-20 12:39 48.12979 -122.29010 4000 ft 219 kts 178°
2026-04-20 12:40 48.11453 -122.28994 3996 ft 220 kts 179°
2026-04-20 12:40 48.09943 -122.28979 3956 ft 220 kts 178°
2026-04-20 12:40 48.08432 -122.28949 3765 ft 214 kts 178°
2026-04-20 12:40 48.06981 -122.28917 3500 ft 203 kts 178°
2026-04-20 12:41 48.05597 -122.28886 3228 ft 195 kts 178°
2026-04-20 12:41 48.04267 -122.28856 2974 ft 188 kts 178°
2026-04-20 12:41 48.02970 -122.28827 2741 ft 186 kts 178°
2026-04-20 12:41 48.01682 -122.28798 2501 ft 185 kts 178°
2026-04-20 12:42 48.00401 -122.28769 2252 ft 184 kts 178°
2026-04-20 12:42 47.99146 -122.28742 2023 ft 172 kts 178°
2026-04-20 12:42 47.98038 -122.28717 1803 ft 150 kts 178°
2026-04-20 12:42 47.97025 -122.28694 1601 ft 142 kts 179°
2026-04-20 12:43 47.96051 -122.28672 1406 ft 138 kts 179°
2026-04-20 12:43 47.95099 -122.28651 1217 ft 136 kts 179°
2026-04-20 12:43 47.94164 -122.28630 1028 ft 133 kts 179°
2026-04-20 12:43 47.93239 -122.28610 840 ft 132 kts 180°
2026-04-20 12:44 47.92326 -122.28590 666 ft 131 kts 180°
2026-04-20 12:44 47.91436 -122.28577 575 ft 116 kts 180°
2026-04-20 12:44 47.90801 -122.28561 571 ft 63 kts 179°
2026-04-20 12:44 47.90434 -122.28552 570 ft 49 kts 179°
2026-04-20 12:45 47.90222 -122.28527 576 ft 14 kts 140°
2026-04-20 12:45 47.90211 -122.28382 569 ft 15 kts 78°
2026-04-20 12:45 47.90298 -122.28327 569 ft 17 kts 356°
2026-04-20 12:45 47.90428 -122.28331 569 ft 21 kts
2026-04-20 12:46 47.90579 -122.28333 574 ft 20 kts 359°
2026-04-20 12:46 47.90717 -122.28335 571 ft 15 kts
2026-04-20 12:46 47.90755 -122.28247 574 ft 12 kts 86°
2026-04-20 12:46 47.90758 -122.28104 570 ft 16 kts 89°
2026-04-20 12:47 47.90765 -122.27969 569 ft 12 kts 56°
2026-04-20 12:47 47.90810 -122.28003 573 ft 7 kts 350°
2026-04-20 12:47 47.90828 -122.27964 574 ft 3 kts 63°
2026-04-20 12:47 47.90832 -122.27950 569 ft 0 kts 64°